This is the latest recevied weather packets stored in our database for station/object N3SBK. If no packets are shown the sender has not sent any weather packets the latest 10 day(s).
| Time | Temp. | Humidity | Pressure | Rain* | Wind** | Luminosity | Snow |
|---|---|---|---|---|---|---|---|
| 1787581520 | 16.11° C | 87% | 1007.8 hPa | 0 mm | - | 65 W/m² | - |
| 1787581219 | 16.11° C | 89% | 1007.7 hPa | 0 mm | - | 57 W/m² | - |
| 1787580914 | 15.56° C | 90% | 1007.7 hPa | 0 mm | - | 136 W/m² | - |
| 1787580610 | 15.56° C | 90% | 1007.7 hPa | 0 mm | - | 82 W/m² | - |
| 1787580305 | 15.56° C | 90% | 1007.9 hPa | 0 mm | - | 36 W/m² | - |
| 1787580001 | 15.56° C | 92% | 1007.8 hPa | 0 mm | - | 57 W/m² | - |
| 1787579700 | 15.56° C | 95% | 1008 hPa | 0 mm | - | 83 W/m² | - |
| 1787579396 | 15° C | 96% | 1007.8 hPa | 0 mm | - | 115 W/m² | - |
| 1787579095 | 15° C | 97% | 1007.8 hPa | 0 mm | - | 56 W/m² | - |
| 1787578792 | 15° C | 97% | 1007.9 hPa | 0 mm | - | 49 W/m² | - |
| 1787578487 | 15° C | 98% | 1007.7 hPa | 0 mm | - | 49 W/m² | - |
| 1787578186 | 15° C | 98% | 1007.7 hPa | 0 mm | - | 45 W/m² | - |
| 1787577882 | 15° C | 98% | 1007.7 hPa | 0 mm | - | 76 W/m² | - |
| 1787577577 | 15° C | 98% | 1007.8 hPa | 0 mm | - | 78 W/m² | - |
| 1787577273 | 14.44° C | 98% | 1007.8 hPa | 0 mm | - | 75 W/m² | - |
| 1787576970 | 14.44° C | 98% | 1007.9 hPa | 0 mm | - | 60 W/m² | - |
| 1787576669 | 14.44° C | 98% | 1007.7 hPa | 0 mm | - | 71 W/m² | - |
| 1787576366 | 14.44° C | 98% | 1007.7 hPa | 0 mm | - | 37 W/m² | - |
| 1787576060 | 14.44° C | 98% | 1007.5 hPa | 0 mm | - | 31 W/m² | - |
| 1787575756 | 14.44° C | 98% | 1007.3 hPa | 0 mm | - | 36 W/m² | - |
| 1787575452 | 14.44° C | 98% | 1007.7 hPa | 0 mm | - | 28 W/m² | - |
| 1787575147 | 13.89° C | 98% | 1007.7 hPa | 0 mm | - | 26 W/m² | - |
| 1787574847 | 13.89° C | 98% | 1007.3 hPa | 0 mm | - | 26 W/m² | - |
| 1787574541 | 13.89° C | 98% | 1007.4 hPa | 0 mm | - | 22 W/m² | - |
| 1787574241 | 13.89° C | 98% | 1007.5 hPa | 0 mm | - | 32 W/m² | - |
* Rain latest hour (hover to see other rain measurements)
** Current wind speed in m/s (hover to see current wind gust speed)